#timestamp,LO_Frequency,Hit,StdDev 
1509692415.3,286047012.0,N
1509692435.2,286047011.9,N
1509692455.9,286047011.6,N
1509692475.7,286047010.7,N
1509692495.6,286047010.5,N
1509692515.4,286047007.8,N
1509692535.2,286047008.7,N
1509692555.1,286047009.1,N
1509692556.0,286047009.1,N
1509692575.8,286047011.7,N
1509692595.6,286047011.3,N
1509692615.5,286047013.4,N
1509692635.3,286047015.6,Y
1509692655.1,286047007.3,P
1509692675.9,286047009.0,P
1509692695.7,286047006.3,P
1509692715.5,286047006.4,Y
1509692735.4,286046998.2,P
1509692755.2,286047001.2,N
1509692775.0,286046999.7,N
1509692776.0,286046999.7,N
1509692795.8,286047000.3,N
1509692815.6,286046998.3,N
1509692835.4,286046999.6,N
1509692855.3,286046993.7,N
1509692875.1,286046995.7,N
1509692895.9,286046997.4,N
1509692915.7,286046999.2,N
1509692935.5,286046998.9,N
1509692955.4,286047002.7,N
1509692975.2,286047002.5,N
1509692995.0,286047002.2,N
1509692995.9,286047002.2,N
1509693015.8,286047004.4,N
1509693035.6,286047005.6,N
1509693055.4,286047008.7,N
1509693075.3,286047005.5,N
1509693095.1,286046999.8,N
1509693096.0,286046999.8,N
1509693115.8,286047001.8,N
1509693135.7,286047005.9,N
1509693155.5,286047005.8,N
1509693175.3,286047008.9,N
1509693195.2,286047004.9,N
1509693215.0,286047005.5,N
1509693215.9,286047005.5,N
1509693235.8,286047004.5,N
1509693255.6,286047005.0,N
1509693275.4,286047005.9,N
1509693295.3,286047005.7,N
1509693315.1,286047003.5,N
1509693316.0,286047003.5,N
1509693335.8,286047003.9,N
1509693355.7,286047003.1,N
1509693375.5,286047004.1,N
1509693395.3,286046998.6,N
1509693415.2,286046998.2,N
1509693435.9,286046997.2,N
1509693455.7,286046991.8,N
1509693475.6,286046991.5,N
1509693495.4,286046989.0,N
1509693515.2,286046991.1,N
1509693535.1,286046986.3,N
1509693536.0,286046986.3,N
1509693555.8,286046985.6,N
1509693575.6,286046987.8,N
1509693595.5,286046987.4,N
1509693615.3,286046988.3,N
1509693635.1,286046988.6,N
1509693655.9,286046990.6,N
1509693675.7,286046994.4,N
1509693695.5,286046992.7,N
1509693715.4,286046990.5,N
1509693735.2,286046988.6,N
1509693755.0,286046989.6,N
1509693755.9,286046989.6,N
1509693775.8,286046985.1,N
1509693795.6,286046986.5,N
1509693815.4,286046989.4,N
1509693835.3,286046989.8,N
1509693855.1,286046986.4,N
1509693875.8,286046986.3,N
1509693895.7,286046984.7,N
1509693915.5,286046980.9,Y
1509693935.4,286046990.7,P
1509693955.2,286046991.0,P
1509693975.0,286046991.4,P
1509693975.9,286046991.4,Y
1509693995.8,286046997.5,P
1509694015.6,286046996.8,N
1509694035.4,286046998.0,N
1509694055.3,286046994.8,N
1509694075.1,286046993.4,N
1509694095.8,286046995.7,N
1509694115.7,286046996.8,N
1509694135.5,286046997.2,N
1509694155.3,286046995.7,N
1509694175.2,286046996.1,N
1509694195.0,286046997.0,N
1509694195.9,286046997.0,N
1509694215.7,286046999.5,N
1509694235.6,286047001.0,N
1509694255.4,286047000.7,N
1509694275.2,286046999.5,N
1509694295.1,286046997.2,N
1509694296.0,286046997.2,N
1509694315.8,286046996.7,N
1509694335.7,286046997.4,N
1509694355.5,286046997.7,N
1509694375.3,286046996.8,N
1509694395.2,286046997.3,N
1509694415.9,286047001.2,N
1509694435.7,286046999.4,N
1509694455.6,286046996.9,N
1509694475.4,286046997.3,N
1509694495.2,286046998.8,N
1509694515.1,286046999.0,N
1509694516.0,286046999.0,N
1509694535.8,286046998.0,N
1509694555.6,286046998.5,N
1509694575.5,286046999.5,N
1509694595.3,286046999.4,N
1509694615.1,286046998.8,N
1509694635.9,286046998.2,N
1509694655.7,286047000.6,N
1509694675.5,286047001.6,N
1509694695.4,286047004.4,N
1509694715.2,286047000.5,N
1509694735.0,286047000.6,N
1509694735.9,286047000.6,N
1509694755.8,286047002.3,N
1509694775.6,286047001.6,N
1509694795.4,286047004.4,N
1509694815.3,286047004.2,N
1509694835.1,286046997.0,N
1509694855.8,286046993.5,N
1509694875.7,286046994.8,N
1509694895.5,286046994.0,N
1509694915.4,286046991.8,Y
1509694935.2,286046997.2,P
1509694955.0,286046999.9,N
1509694955.9,286046999.9,N
1509694975.8,286046998.9,N
1509694995.6,286046999.0,N
1509695015.4,286046998.5,N
1509695035.3,286046997.1,Y
1509695055.1,286046997.0,P
1509695075.8,286046998.0,N
1509695095.7,286047000.5,N
1509695115.5,286046999.9,N
1509695135.3,286046998.5,N
1509695155.2,286047000.6,N
1509695175.0,286047001.0,N
1509695175.9,286047001.0,N
1509695195.7,286047002.3,N
1509695215.6,286047002.3,N
1509695235.4,286046999.7,N
1509695255.2,286046998.3,N
1509695275.1,286046997.3,N
1509695276.0,286046997.3,N
1509695295.8,286047001.2,N
1509695315.7,286047000.4,N
1509695335.5,286046997.4,N
1509695355.3,286046996.0,N
1509695375.2,286046993.5,Y
1509695395.9,286046994.1,P
1509695415.7,286046996.3,N
1509695435.6,286046997.0,N
1509695455.4,286047000.0,N
1509695475.2,286047000.3,N
1509695495.1,286047000.1,N
1509695496.0,286047000.1,N
1509695515.8,286046998.1,N
1509695535.7,286047000.1,N
1509695555.5,286047000.9,N
1509695575.3,286047001.6,N
1509695595.2,286046999.5,N
1509695615.9,286046999.4,N
1509695635.7,286046996.8,N
1509695655.6,286046997.4,N
1509695675.4,286046997.0,N
1509695695.2,286047001.2,N
1509695715.1,286047000.6,N
1509695716.0,286047000.6,N
1509695735.8,286047002.5,N
1509695755.6,286047002.5,N
1509695775.5,286046999.5,N
1509695795.3,286046999.5,N
1509695815.1,286047000.9,N
1509695835.9,286047001.9,N
1509695855.7,286047002.6,N
1509695875.5,286047005.6,N
1509695895.4,286047005.4,N
1509695915.2,286047001.5,N
1509695935.0,286047001.7,N
1509695935.9,286047001.7,N
1509695955.8,286047003.2,N
1509695975.6,286047004.6,N
1509695995.4,286047006.8,Y
